Year,Month,Day,Hour,Minute,Value (Times are PST for temperature in C)
2015,02,23,00,00,5.00
2015,02,23,00,01,4.90
2015,02,23,00,02,4.90
2015,02,23,00,03,4.90
2015,02,23,00,04,4.90
2015,02,23,00,05,4.90
2015,02,23,00,06,4.80
2015,02,23,00,07,4.80
2015,02,23,00,08,4.80
2015,02,23,00,09,4.80
2015,02,23,00,10,4.80
2015,02,23,00,11,4.80
2015,02,23,00,12,4.70
2015,02,23,00,13,4.70
2015,02,23,00,14,4.70
2015,02,23,00,15,4.70
2015,02,23,00,16,4.70
2015,02,23,00,17,4.60
2015,02,23,00,18,4.60
2015,02,23,00,19,4.60
2015,02,23,00,20,4.60
2015,02,23,00,21,4.60
2015,02,23,00,22,4.60
2015,02,23,00,23,4.60
2015,02,23,00,24,4.60
2015,02,23,00,25,4.60
2015,02,23,00,26,4.60
2015,02,23,00,27,4.60
2015,02,23,00,28,4.60
2015,02,23,00,29,4.60
2015,02,23,00,30,4.60
2015,02,23,00,31,4.60
2015,02,23,00,32,4.60
2015,02,23,00,33,4.60
2015,02,23,00,34,4.60
2015,02,23,00,35,4.60
2015,02,23,00,36,4.50
2015,02,23,00,37,4.50
2015,02,23,00,38,4.50
2015,02,23,00,39,4.50
2015,02,23,00,40,4.50
2015,02,23,00,41,4.50
2015,02,23,00,42,4.40
2015,02,23,00,43,4.40
2015,02,23,00,44,4.40
2015,02,23,00,45,4.40
2015,02,23,00,46,4.40
2015,02,23,00,47,4.50
2015,02,23,00,48,4.50
2015,02,23,00,49,4.50
2015,02,23,00,50,4.50
2015,02,23,00,51,4.50
2015,02,23,00,52,4.50
2015,02,23,00,53,4.60
2015,02,23,00,54,4.60
2015,02,23,00,55,4.60
2015,02,23,00,56,4.60
2015,02,23,00,57,4.60
2015,02,23,00,58,4.60
2015,02,23,00,59,4.60
2015,02,23,01,00,4.50
2015,02,23,01,01,4.50
2015,02,23,01,02,4.50
2015,02,23,01,03,4.50
2015,02,23,01,04,4.50
2015,02,23,01,05,4.40
2015,02,23,01,06,4.40
2015,02,23,01,07,4.40
2015,02,23,01,08,4.40
2015,02,23,01,09,4.30
2015,02,23,01,10,4.30
2015,02,23,01,11,4.30
2015,02,23,01,12,4.30
2015,02,23,01,13,4.30
2015,02,23,01,14,4.30
2015,02,23,01,15,4.30
2015,02,23,01,16,4.30
2015,02,23,01,17,4.30
2015,02,23,01,18,4.20
2015,02,23,01,19,4.20
2015,02,23,01,20,4.20
2015,02,23,01,21,4.20
2015,02,23,01,22,4.20
2015,02,23,01,23,4.20
2015,02,23,01,24,4.20
2015,02,23,01,25,4.20
2015,02,23,01,26,4.10
2015,02,23,01,27,4.10
2015,02,23,01,28,4.20
2015,02,23,01,29,4.20
2015,02,23,01,30,4.20
2015,02,23,01,31,4.20
2015,02,23,01,32,4.20
2015,02,23,01,33,4.20
2015,02,23,01,34,4.20
2015,02,23,01,35,4.20
2015,02,23,01,36,4.20
2015,02,23,01,37,4.20
2015,02,23,01,38,4.20
2015,02,23,01,39,4.20
2015,02,23,01,40,4.20
2015,02,23,01,41,4.20
2015,02,23,01,42,4.20
2015,02,23,01,43,4.20
2015,02,23,01,44,4.10
2015,02,23,01,45,4.10
2015,02,23,01,46,4.10
2015,02,23,01,47,4.10
2015,02,23,01,48,4.10
2015,02,23,01,49,4.10
2015,02,23,01,50,4.10
2015,02,23,01,51,4.10
2015,02,23,01,52,4.10
2015,02,23,01,53,4.10
2015,02,23,01,54,4.10
2015,02,23,01,55,4.10
2015,02,23,01,56,4.10
2015,02,23,01,57,4.10
2015,02,23,01,58,4.10
2015,02,23,01,59,4.10
2015,02,23,02,00,4.10
2015,02,23,02,01,4.10
2015,02,23,02,02,4.10
2015,02,23,02,03,4.10
2015,02,23,02,04,4.10
2015,02,23,02,05,4.10
2015,02,23,02,06,4.10
2015,02,23,02,07,4.10
2015,02,23,02,08,4.10
2015,02,23,02,09,4.10
2015,02,23,02,10,4.10
2015,02,23,02,11,4.10
2015,02,23,02,12,4.00
2015,02,23,02,13,4.00
2015,02,23,02,14,4.00
2015,02,23,02,15,4.00
2015,02,23,02,16,4.00
2015,02,23,02,17,4.00
2015,02,23,02,18,3.90
2015,02,23,02,19,3.90
2015,02,23,02,20,3.90
2015,02,23,02,21,3.90
2015,02,23,02,22,3.80
2015,02,23,02,23,3.80
2015,02,23,02,24,3.80
2015,02,23,02,25,3.80
2015,02,23,02,26,3.80
2015,02,23,02,27,3.70
2015,02,23,02,28,3.70
2015,02,23,02,29,3.70
2015,02,23,02,30,3.60
2015,02,23,02,31,3.60
2015,02,23,02,32,3.60
2015,02,23,02,33,3.50
2015,02,23,02,34,3.50
2015,02,23,02,35,3.40
2015,02,23,02,36,3.40
2015,02,23,02,37,3.40
2015,02,23,02,38,3.30
2015,02,23,02,39,3.30
2015,02,23,02,40,3.20
2015,02,23,02,41,3.20
2015,02,23,02,42,3.20
2015,02,23,02,43,3.10
2015,02,23,02,44,3.10
2015,02,23,02,45,3.10
2015,02,23,02,46,3.10
2015,02,23,02,47,3.00
2015,02,23,02,48,3.00
2015,02,23,02,49,3.00
2015,02,23,02,50,3.00
2015,02,23,02,51,2.90
2015,02,23,02,52,2.90
2015,02,23,02,53,2.90
2015,02,23,02,54,2.90
2015,02,23,02,55,2.90
2015,02,23,02,56,2.90
2015,02,23,02,57,2.90
2015,02,23,02,58,2.80
2015,02,23,02,59,2.80
2015,02,23,03,00,2.80
2015,02,23,03,01,2.80
2015,02,23,03,02,2.80
2015,02,23,03,03,2.80
2015,02,23,03,04,2.80
2015,02,23,03,05,2.80
2015,02,23,03,06,2.80
2015,02,23,03,07,2.70
2015,02,23,03,08,2.70
2015,02,23,03,09,2.70
2015,02,23,03,10,2.70
2015,02,23,03,11,2.70
2015,02,23,03,12,2.70
2015,02,23,03,13,2.70
2015,02,23,03,14,2.70
2015,02,23,03,15,2.60
2015,02,23,03,16,2.60
2015,02,23,03,17,2.60
2015,02,23,03,18,2.60
2015,02,23,03,19,2.50
2015,02,23,03,20,2.50
2015,02,23,03,21,2.50
2015,02,23,03,22,2.40
2015,02,23,03,23,2.40
2015,02,23,03,24,2.40
2015,02,23,03,25,2.40
2015,02,23,03,26,2.40
2015,02,23,03,27,2.30
2015,02,23,03,28,2.30
2015,02,23,03,29,2.30
2015,02,23,03,30,2.30
2015,02,23,03,31,2.30
2015,02,23,03,32,2.30
2015,02,23,03,33,2.30
2015,02,23,03,34,2.30
2015,02,23,03,35,2.30
2015,02,23,03,36,2.30
2015,02,23,03,37,2.30
2015,02,23,03,38,2.20
2015,02,23,03,39,2.20
2015,02,23,03,40,2.20
2015,02,23,03,41,2.10
2015,02,23,03,42,2.10
2015,02,23,03,43,2.10
2015,02,23,03,44,2.10
2015,02,23,03,45,2.00
2015,02,23,03,46,2.00
2015,02,23,03,47,2.00
2015,02,23,03,48,1.90
2015,02,23,03,49,1.90
2015,02,23,03,50,1.90
2015,02,23,03,51,1.90
2015,02,23,03,52,2.00
2015,02,23,03,53,2.00
2015,02,23,03,54,2.00
2015,02,23,03,55,2.00
2015,02,23,03,56,2.00
2015,02,23,03,57,2.00
2015,02,23,03,58,2.00
2015,02,23,03,59,2.00
2015,02,23,04,00,2.10
2015,02,23,04,01,2.10
2015,02,23,04,02,2.10
2015,02,23,04,03,2.10
2015,02,23,04,04,2.10
2015,02,23,04,05,2.20
2015,02,23,04,06,2.20
2015,02,23,04,07,2.20
2015,02,23,04,08,2.20
2015,02,23,04,09,2.20
2015,02,23,04,10,2.20
2015,02,23,04,11,2.20
2015,02,23,04,12,2.20
2015,02,23,04,13,2.20
2015,02,23,04,14,2.20
2015,02,23,04,15,2.20
2015,02,23,04,16,2.20
2015,02,23,04,17,2.20
2015,02,23,04,18,2.10
2015,02,23,04,19,2.10
2015,02,23,04,20,2.10
2015,02,23,04,21,2.10
2015,02,23,04,22,2.10
2015,02,23,04,23,2.10
2015,02,23,04,24,2.00
2015,02,23,04,25,2.00
2015,02,23,04,26,2.00
2015,02,23,04,27,1.90
2015,02,23,04,28,1.90
2015,02,23,04,29,1.90
2015,02,23,04,30,1.90
2015,02,23,04,31,1.90
2015,02,23,04,32,1.90
2015,02,23,04,33,1.90
2015,02,23,04,34,1.80
2015,02,23,04,35,1.80
2015,02,23,04,36,1.80
2015,02,23,04,37,1.80
2015,02,23,04,38,1.80
2015,02,23,04,39,1.70
2015,02,23,04,40,1.70
2015,02,23,04,41,1.70
2015,02,23,04,42,1.70
2015,02,23,04,43,1.70
2015,02,23,04,44,1.70
2015,02,23,04,45,1.70
2015,02,23,04,46,1.70
2015,02,23,04,47,1.70
2015,02,23,04,48,1.60
2015,02,23,04,49,1.50
2015,02,23,04,50,1.50
2015,02,23,04,51,1.50
2015,02,23,04,52,1.50
2015,02,23,04,53,1.50
2015,02,23,04,54,1.50
2015,02,23,04,55,1.50
2015,02,23,04,56,1.50
2015,02,23,04,57,1.50
2015,02,23,04,58,1.50
2015,02,23,04,59,1.50
2015,02,23,05,00,1.50
2015,02,23,05,01,1.50
2015,02,23,05,02,1.50
2015,02,23,05,03,1.50
2015,02,23,05,04,1.50
2015,02,23,05,05,1.50
2015,02,23,05,06,1.50
2015,02,23,05,07,1.40
2015,02,23,05,08,1.40
2015,02,23,05,09,1.40
2015,02,23,05,10,1.40
2015,02,23,05,11,1.40
2015,02,23,05,12,1.40
2015,02,23,05,13,1.50
2015,02,23,05,14,1.50
2015,02,23,05,15,1.50
2015,02,23,05,16,1.50
2015,02,23,05,17,1.50
2015,02,23,05,18,1.50
2015,02,23,05,19,1.50
2015,02,23,05,20,1.50
2015,02,23,05,21,1.50
2015,02,23,05,22,1.50
2015,02,23,05,23,1.50
2015,02,23,05,24,1.50
2015,02,23,05,25,1.50
2015,02,23,05,26,1.50
2015,02,23,05,27,1.50
2015,02,23,05,28,1.50
2015,02,23,05,29,1.50
2015,02,23,05,30,1.50
2015,02,23,05,31,1.50
2015,02,23,05,32,1.50
2015,02,23,05,33,1.50
2015,02,23,05,34,1.50
2015,02,23,05,35,1.50
2015,02,23,05,36,1.50
2015,02,23,05,37,1.50
2015,02,23,05,38,1.40
2015,02,23,05,39,1.40
2015,02,23,05,40,1.40
2015,02,23,05,41,1.40
2015,02,23,05,42,1.40
2015,02,23,05,43,1.40
2015,02,23,05,44,1.40
2015,02,23,05,45,1.40
2015,02,23,05,46,1.40
2015,02,23,05,47,1.40
2015,02,23,05,48,1.40
2015,02,23,05,49,1.40
2015,02,23,05,50,1.40
2015,02,23,05,51,1.40
2015,02,23,05,52,1.50
2015,02,23,05,53,1.50
2015,02,23,05,54,1.50
2015,02,23,05,55,1.60
2015,02,23,05,56,1.60
2015,02,23,05,57,1.60
2015,02,23,05,58,1.60
2015,02,23,05,59,1.60
2015,02,23,06,00,1.70
2015,02,23,06,01,1.70
2015,02,23,06,02,1.70
2015,02,23,06,03,1.80
2015,02,23,06,04,1.80
2015,02,23,06,05,1.80
2015,02,23,06,06,1.80
2015,02,23,06,07,1.90
2015,02,23,06,08,1.90
2015,02,23,06,09,1.90
2015,02,23,06,10,2.00
2015,02,23,06,11,2.00
2015,02,23,06,12,2.10
2015,02,23,06,13,2.10
2015,02,23,06,14,2.20
2015,02,23,06,15,2.20
2015,02,23,06,16,2.20
2015,02,23,06,17,2.30
2015,02,23,06,18,2.40
2015,02,23,06,19,2.40
2015,02,23,06,20,2.50
2015,02,23,06,21,2.50
2015,02,23,06,22,2.50
2015,02,23,06,23,2.60
2015,02,23,06,24,2.60
2015,02,23,06,25,2.60
2015,02,23,06,26,2.60
2015,02,23,06,27,2.60
2015,02,23,06,28,2.70
2015,02,23,06,29,2.70
2015,02,23,06,30,2.70
2015,02,23,06,31,2.70
2015,02,23,06,32,2.70
2015,02,23,06,33,2.70
2015,02,23,06,34,2.80
2015,02,23,06,35,2.80
2015,02,23,06,36,2.80
2015,02,23,06,37,2.80
2015,02,23,06,38,2.80
2015,02,23,06,39,2.80
2015,02,23,06,40,2.80
2015,02,23,06,41,2.80
2015,02,23,06,42,2.80
2015,02,23,06,43,2.80
2015,02,23,06,44,2.80
2015,02,23,06,45,2.80
2015,02,23,06,46,2.80
2015,02,23,06,47,2.80
2015,02,23,06,48,2.80
2015,02,23,06,49,2.80
2015,02,23,06,50,2.80
2015,02,23,06,51,2.80
2015,02,23,06,52,2.80
2015,02,23,06,53,2.80
2015,02,23,06,54,2.80
2015,02,23,06,55,2.80
2015,02,23,06,56,2.80
2015,02,23,06,57,2.90
2015,02,23,06,58,2.90
2015,02,23,06,59,2.90
2015,02,23,07,00,2.90
2015,02,23,07,01,2.90
2015,02,23,07,02,2.90
2015,02,23,07,03,2.90
2015,02,23,07,04,2.90
2015,02,23,07,05,2.90
2015,02,23,07,06,3.00
2015,02,23,07,07,3.00
2015,02,23,07,08,3.00
2015,02,23,07,09,3.00
2015,02,23,07,10,3.00
2015,02,23,07,11,3.00
2015,02,23,07,12,3.10
2015,02,23,07,13,3.10
2015,02,23,07,14,3.10
2015,02,23,07,15,3.10
2015,02,23,07,16,3.10
2015,02,23,07,17,3.10
2015,02,23,07,18,3.20
2015,02,23,07,19,3.20
2015,02,23,07,20,3.20
2015,02,23,07,21,3.20
2015,02,23,07,22,3.20
2015,02,23,07,23,3.20
2015,02,23,07,24,3.20
2015,02,23,07,25,3.20
2015,02,23,07,26,3.20
2015,02,23,07,27,3.20
2015,02,23,07,28,3.20
2015,02,23,07,29,3.20
2015,02,23,07,30,3.20
2015,02,23,07,31,3.20
2015,02,23,07,32,3.20
2015,02,23,07,33,3.20
2015,02,23,07,34,3.20
2015,02,23,07,35,3.20
2015,02,23,07,36,3.20
2015,02,23,07,37,3.20
2015,02,23,07,38,3.20
2015,02,23,07,39,3.20
2015,02,23,07,40,3.30
2015,02,23,07,41,3.30
2015,02,23,07,42,3.30
2015,02,23,07,43,3.30
2015,02,23,07,44,3.30
2015,02,23,07,45,3.30
2015,02,23,07,46,3.30
2015,02,23,07,47,3.30
2015,02,23,07,48,3.40
2015,02,23,07,49,3.40
2015,02,23,07,50,3.40
2015,02,23,07,51,3.40
2015,02,23,07,52,3.40
2015,02,23,07,53,3.50
2015,02,23,07,54,3.50
2015,02,23,07,55,3.50
2015,02,23,07,56,3.60
2015,02,23,07,57,3.60
2015,02,23,07,58,3.60
2015,02,23,07,59,3.70
2015,02,23,08,00,3.70
2015,02,23,08,01,3.80
2015,02,23,08,02,3.80
2015,02,23,08,03,3.90
2015,02,23,08,04,3.90
2015,02,23,08,05,4.00
2015,02,23,08,06,4.00
2015,02,23,08,07,4.10
2015,02,23,08,08,4.20
2015,02,23,08,09,4.20
2015,02,23,08,10,4.30
2015,02,23,08,11,4.40
2015,02,23,08,12,4.40
2015,02,23,08,13,4.50
2015,02,23,08,14,4.60
2015,02,23,08,15,4.60
2015,02,23,08,16,4.70
2015,02,23,08,17,4.80
2015,02,23,08,18,4.80
2015,02,23,08,19,4.90
2015,02,23,08,20,5.00
2015,02,23,08,21,5.00
2015,02,23,08,22,5.10
2015,02,23,08,23,5.10
2015,02,23,08,24,5.20
2015,02,23,08,25,5.20
2015,02,23,08,26,5.30
2015,02,23,08,27,5.30
2015,02,23,08,28,5.30
2015,02,23,08,29,5.40
2015,02,23,08,30,5.40
2015,02,23,08,31,5.50
2015,02,23,08,32,5.50
2015,02,23,08,33,5.60
2015,02,23,08,34,5.60
2015,02,23,08,35,5.70
2015,02,23,08,36,5.70
2015,02,23,08,37,5.80
2015,02,23,08,38,5.80
2015,02,23,08,39,5.80
2015,02,23,08,40,5.90
2015,02,23,08,41,5.90
2015,02,23,08,42,6.00
2015,02,23,08,43,6.00
2015,02,23,08,44,6.10
2015,02,23,08,45,6.10
2015,02,23,08,46,6.20
2015,02,23,08,47,6.20
2015,02,23,08,48,6.30
2015,02,23,08,49,6.30
2015,02,23,08,50,6.30
2015,02,23,08,51,6.40
2015,02,23,08,52,6.50
2015,02,23,08,53,6.50
2015,02,23,08,54,6.60
2015,02,23,08,55,6.70
2015,02,23,08,56,6.70
2015,02,23,08,57,6.80
2015,02,23,08,58,6.80
2015,02,23,08,59,6.90
2015,02,23,09,00,6.90
2015,02,23,09,01,7.00
2015,02,23,09,02,7.10
2015,02,23,09,03,7.10
2015,02,23,09,04,7.20
2015,02,23,09,05,7.20
2015,02,23,09,06,7.30
2015,02,23,09,07,7.40
2015,02,23,09,08,7.40
2015,02,23,09,09,7.50
2015,02,23,09,10,7.60
2015,02,23,09,11,7.60
2015,02,23,09,12,7.70
2015,02,23,09,13,7.70
2015,02,23,09,14,7.70
2015,02,23,09,15,7.80
2015,02,23,09,16,7.80
2015,02,23,09,17,7.80
2015,02,23,09,18,7.80
2015,02,23,09,19,7.90
2015,02,23,09,20,7.90
2015,02,23,09,21,8.00
2015,02,23,09,22,8.00
2015,02,23,09,23,8.10
2015,02,23,09,24,8.10
2015,02,23,09,25,8.20
2015,02,23,09,26,8.20
2015,02,23,09,27,8.30
2015,02,23,09,28,8.30
2015,02,23,09,29,8.30
2015,02,23,09,30,8.40
2015,02,23,09,31,8.40
2015,02,23,09,32,8.50
2015,02,23,09,33,8.50
2015,02,23,09,34,8.60
2015,02,23,09,35,8.60
2015,02,23,09,36,8.60
2015,02,23,09,37,8.70
2015,02,23,09,38,8.70
2015,02,23,09,39,8.70
2015,02,23,09,40,8.70
2015,02,23,09,41,8.80
2015,02,23,09,42,8.80
2015,02,23,09,43,8.80
2015,02,23,09,44,8.80
2015,02,23,09,45,8.80
2015,02,23,09,46,8.90
2015,02,23,09,47,8.80
2015,02,23,09,48,8.80
2015,02,23,09,49,8.90
2015,02,23,09,50,8.90
2015,02,23,09,51,8.90
2015,02,23,09,52,9.00
2015,02,23,09,53,9.00
2015,02,23,09,54,9.00
2015,02,23,09,55,9.10
2015,02,23,09,56,9.10
2015,02,23,09,57,9.10
2015,02,23,09,58,9.20
2015,02,23,09,59,9.20
2015,02,23,10,00,9.30
2015,02,23,10,01,9.30
2015,02,23,10,02,9.30
2015,02,23,10,03,9.40
2015,02,23,10,04,9.40
2015,02,23,10,05,9.40
2015,02,23,10,06,9.50
2015,02,23,10,07,9.50
2015,02,23,10,08,9.50
2015,02,23,10,09,9.50
2015,02,23,10,10,9.60
2015,02,23,10,11,9.60
2015,02,23,10,12,9.60
2015,02,23,10,13,9.60
2015,02,23,10,14,9.70
2015,02,23,10,15,9.70
2015,02,23,10,16,9.70
2015,02,23,10,17,9.70
2015,02,23,10,18,9.80
2015,02,23,10,19,9.80
2015,02,23,10,20,9.80
2015,02,23,10,21,9.80
2015,02,23,10,22,9.80
2015,02,23,10,23,9.80
2015,02,23,10,24,9.90
2015,02,23,10,25,9.90
2015,02,23,10,26,9.90
2015,02,23,10,27,9.90
2015,02,23,10,28,9.90
2015,02,23,10,29,9.90
2015,02,23,10,30,9.90
2015,02,23,10,31,9.90
2015,02,23,10,32,9.90
2015,02,23,10,33,9.90
2015,02,23,10,34,9.90
2015,02,23,10,35,10.00
2015,02,23,10,36,10.00
2015,02,23,10,37,10.00
2015,02,23,10,38,10.00
2015,02,23,10,39,10.10
2015,02,23,10,40,10.10
2015,02,23,10,41,10.10
2015,02,23,10,42,10.20
2015,02,23,10,43,10.20
2015,02,23,10,44,10.20
2015,02,23,10,45,10.20
2015,02,23,10,46,10.30
2015,02,23,10,47,10.30
2015,02,23,10,48,10.30
2015,02,23,10,49,10.40
2015,02,23,10,50,10.40
2015,02,23,10,51,10.40
2015,02,23,10,52,10.50
2015,02,23,10,53,10.50
2015,02,23,10,54,10.50
2015,02,23,10,55,10.60
2015,02,23,10,56,10.60
2015,02,23,10,57,10.60
2015,02,23,10,58,10.70
2015,02,23,10,59,10.70
2015,02,23,11,00,10.70
2015,02,23,11,01,10.70
2015,02,23,11,02,10.80
2015,02,23,11,03,10.80
2015,02,23,11,04,10.80
2015,02,23,11,05,10.90
2015,02,23,11,06,10.90
2015,02,23,11,07,10.90
2015,02,23,11,08,11.00
2015,02,23,11,09,11.00
2015,02,23,11,10,11.10
2015,02,23,11,11,11.10
2015,02,23,11,12,11.10
2015,02,23,11,13,11.10
2015,02,23,11,14,11.10
2015,02,23,11,15,11.10
2015,02,23,11,16,11.10
2015,02,23,11,17,11.20
2015,02,23,11,18,11.20
2015,02,23,11,19,11.20
2015,02,23,11,20,11.20
2015,02,23,11,21,11.20
2015,02,23,11,22,11.20
2015,02,23,11,23,11.20
2015,02,23,11,24,11.30
2015,02,23,11,25,11.30
2015,02,23,11,26,11.30
2015,02,23,11,27,11.40
2015,02,23,11,28,11.40
2015,02,23,11,29,11.40
2015,02,23,11,30,11.40
2015,02,23,11,31,11.40
2015,02,23,11,32,11.40
2015,02,23,11,33,11.40
2015,02,23,11,34,11.40
2015,02,23,11,35,11.40
2015,02,23,11,36,11.40
2015,02,23,11,37,11.40
2015,02,23,11,38,11.40
2015,02,23,11,39,11.40
2015,02,23,11,40,11.40
2015,02,23,11,41,11.40
2015,02,23,11,42,11.40
2015,02,23,11,43,11.40
2015,02,23,11,44,11.40
2015,02,23,11,45,11.40
2015,02,23,11,46,11.40
2015,02,23,11,47,11.40
2015,02,23,11,48,11.50
2015,02,23,11,49,11.50
2015,02,23,11,50,11.50
2015,02,23,11,51,11.60
2015,02,23,11,52,11.60
2015,02,23,11,53,11.60
2015,02,23,11,54,11.60
2015,02,23,11,55,11.60
2015,02,23,11,56,11.70
2015,02,23,11,57,11.70
2015,02,23,11,58,11.70
2015,02,23,11,59,11.70
2015,02,23,12,00,11.70
2015,02,23,12,01,11.70
2015,02,23,12,02,11.70
2015,02,23,12,03,11.70
2015,02,23,12,04,11.70
2015,02,23,12,05,11.80
2015,02,23,12,06,11.80
2015,02,23,12,07,11.80
2015,02,23,12,08,11.80
2015,02,23,12,09,11.70
2015,02,23,12,10,11.80
2015,02,23,12,11,11.80
2015,02,23,12,12,11.80
2015,02,23,12,13,11.80
2015,02,23,12,14,11.80
2015,02,23,12,15,11.90
2015,02,23,12,16,11.90
2015,02,23,12,17,11.90
2015,02,23,12,18,12.00
2015,02,23,12,19,12.00
2015,02,23,12,20,12.10
2015,02,23,12,21,12.10
2015,02,23,12,22,12.10
2015,02,23,12,23,12.20
2015,02,23,12,24,12.20
2015,02,23,12,25,12.20
2015,02,23,12,26,12.20
2015,02,23,12,27,12.30
2015,02,23,12,28,12.30
2015,02,23,12,29,12.20
2015,02,23,12,30,12.10
2015,02,23,12,31,12.10
2015,02,23,12,32,12.00
2015,02,23,12,33,11.90
2015,02,23,12,34,11.90
2015,02,23,12,35,11.70
2015,02,23,12,36,11.60
2015,02,23,12,37,11.40
2015,02,23,12,38,11.30
2015,02,23,12,39,11.20
2015,02,23,12,40,11.10
2015,02,23,12,41,11.00
2015,02,23,12,42,11.00
2015,02,23,12,43,11.00
2015,02,23,12,44,10.90
2015,02,23,12,45,10.90
2015,02,23,12,46,10.90
2015,02,23,12,47,10.90
2015,02,23,12,48,11.00
2015,02,23,12,49,11.00
2015,02,23,12,50,11.00
2015,02,23,12,51,11.10
2015,02,23,12,52,11.10
2015,02,23,12,53,11.10
2015,02,23,12,54,11.10
2015,02,23,12,55,11.00
2015,02,23,12,56,11.00
2015,02,23,12,57,10.90
2015,02,23,12,58,10.90
2015,02,23,12,59,10.80
2015,02,23,13,00,10.70
2015,02,23,13,01,10.60
2015,02,23,13,02,10.50
2015,02,23,13,03,10.40
2015,02,23,13,04,10.40
2015,02,23,13,05,10.30
2015,02,23,13,06,10.20
2015,02,23,13,07,10.10
2015,02,23,13,08,10.10
2015,02,23,13,09,10.00
2015,02,23,13,10,9.90
2015,02,23,13,11,9.90
2015,02,23,13,12,9.90
2015,02,23,13,13,9.80
2015,02,23,13,14,9.80
2015,02,23,13,15,9.80
2015,02,23,13,16,9.80
2015,02,23,13,17,9.90
2015,02,23,13,18,9.90
2015,02,23,13,19,9.90
2015,02,23,13,20,9.90
2015,02,23,13,21,9.90
2015,02,23,13,22,10.00
2015,02,23,13,23,10.00
2015,02,23,13,24,10.00
2015,02,23,13,25,10.10
2015,02,23,13,26,10.00
2015,02,23,13,27,10.00
2015,02,23,13,28,10.10
2015,02,23,13,29,10.10
2015,02,23,13,30,10.10
2015,02,23,13,31,10.10
2015,02,23,13,32,10.10
2015,02,23,13,33,10.10
2015,02,23,13,34,10.10
2015,02,23,13,35,10.10
2015,02,23,13,36,10.20
2015,02,23,13,37,10.20
2015,02,23,13,38,10.20
2015,02,23,13,39,10.30
2015,02,23,13,40,10.30
2015,02,23,13,41,10.30
2015,02,23,13,42,10.30
2015,02,23,13,43,10.30
2015,02,23,13,44,10.40
2015,02,23,13,45,10.40
2015,02,23,13,46,10.40
2015,02,23,13,47,10.40
2015,02,23,13,48,10.40
2015,02,23,13,49,10.30
2015,02,23,13,50,10.30
2015,02,23,13,51,10.30
2015,02,23,13,52,10.30
2015,02,23,13,53,10.30
2015,02,23,13,54,10.30
2015,02,23,13,55,10.30
2015,02,23,13,56,10.30
2015,02,23,13,57,10.30
2015,02,23,13,58,10.30
2015,02,23,13,59,10.30
2015,02,23,14,00,10.30
2015,02,23,14,01,10.30
2015,02,23,14,02,10.30
2015,02,23,14,03,10.20
2015,02,23,14,04,10.30
2015,02,23,14,05,10.30
2015,02,23,14,06,10.30
2015,02,23,14,07,10.20
2015,02,23,14,08,10.20
2015,02,23,14,09,10.20
2015,02,23,14,10,10.20
2015,02,23,14,11,10.20
2015,02,23,14,12,10.20
2015,02,23,14,13,10.20
2015,02,23,14,14,10.20
2015,02,23,14,15,10.20
2015,02,23,14,16,10.20
2015,02,23,14,17,10.20
2015,02,23,14,18,10.20
2015,02,23,14,19,10.10
2015,02,23,14,20,10.10
2015,02,23,14,21,10.10
2015,02,23,14,22,10.10
2015,02,23,14,23,10.20
2015,02,23,14,24,10.20
2015,02,23,14,25,10.20
2015,02,23,14,26,10.30
2015,02,23,14,27,10.40
2015,02,23,14,28,10.40
2015,02,23,14,29,10.50
2015,02,23,14,30,10.50
2015,02,23,14,31,10.60
2015,02,23,14,32,10.60
2015,02,23,14,33,10.60
2015,02,23,14,34,10.60
2015,02,23,14,35,10.60
2015,02,23,14,36,10.60
2015,02,23,14,37,10.60
2015,02,23,14,38,10.50
2015,02,23,14,39,10.50
2015,02,23,14,40,10.50
2015,02,23,14,41,10.50
2015,02,23,14,42,10.60
2015,02,23,14,43,10.60
2015,02,23,14,44,10.50
2015,02,23,14,45,10.50
2015,02,23,14,46,10.50
2015,02,23,14,47,10.50
2015,02,23,14,48,10.50
2015,02,23,14,49,10.50
2015,02,23,14,50,10.50
2015,02,23,14,51,10.50
2015,02,23,14,52,10.50
2015,02,23,14,53,10.60
2015,02,23,14,54,10.60
2015,02,23,14,55,10.60
2015,02,23,14,56,10.60
2015,02,23,14,57,10.70
2015,02,23,14,58,10.70
2015,02,23,14,59,10.70
2015,02,23,15,00,10.70
2015,02,23,15,01,10.80
2015,02,23,15,02,10.80
2015,02,23,15,03,10.80
2015,02,23,15,04,10.80
2015,02,23,15,05,10.80
2015,02,23,15,06,10.80
2015,02,23,15,07,10.80
2015,02,23,15,08,10.80
2015,02,23,15,09,10.90
2015,02,23,15,10,10.90
2015,02,23,15,11,10.90
2015,02,23,15,12,10.90
2015,02,23,15,13,10.90
2015,02,23,15,14,10.90
2015,02,23,15,15,10.90
2015,02,23,15,16,10.90
2015,02,23,15,17,11.00
2015,02,23,15,18,11.00
2015,02,23,15,19,11.00
2015,02,23,15,20,11.10
2015,02,23,15,21,11.10
2015,02,23,15,22,11.10
2015,02,23,15,23,11.10
2015,02,23,15,24,11.10
2015,02,23,15,25,11.10
2015,02,23,15,26,11.10
2015,02,23,15,27,11.10
2015,02,23,15,28,11.10
2015,02,23,15,29,11.10
2015,02,23,15,30,11.10
2015,02,23,15,31,11.10
2015,02,23,15,32,11.10
2015,02,23,15,33,11.20
2015,02,23,15,34,11.20
2015,02,23,15,35,11.20
2015,02,23,15,36,11.20
2015,02,23,15,37,11.20
2015,02,23,15,38,11.20
2015,02,23,15,39,11.30
2015,02,23,15,40,11.30
2015,02,23,15,41,11.40
2015,02,23,15,42,11.40
2015,02,23,15,43,11.40
2015,02,23,15,44,11.50
2015,02,23,15,45,11.60
2015,02,23,15,46,11.60
2015,02,23,15,47,11.70
2015,02,23,15,48,11.70
2015,02,23,15,49,11.70
2015,02,23,15,50,11.80
2015,02,23,15,51,11.80
2015,02,23,15,52,11.90
2015,02,23,15,53,11.90
2015,02,23,15,54,11.90
2015,02,23,15,55,11.90
2015,02,23,15,56,12.00
2015,02,23,15,57,12.00
2015,02,23,15,58,12.00
2015,02,23,15,59,12.10
2015,02,23,16,00,12.10
2015,02,23,16,01,12.10
2015,02,23,16,02,12.20
2015,02,23,16,03,12.20
2015,02,23,16,04,12.20
2015,02,23,16,05,12.20
2015,02,23,16,06,12.20
2015,02,23,16,07,12.20
2015,02,23,16,08,12.30
2015,02,23,16,09,12.30
2015,02,23,16,10,12.30
2015,02,23,16,11,12.30
2015,02,23,16,12,12.30
2015,02,23,16,13,12.30
2015,02,23,16,14,12.30
2015,02,23,16,15,12.30
2015,02,23,16,16,12.40
2015,02,23,16,17,12.40
2015,02,23,16,18,12.30
2015,02,23,16,19,12.30
2015,02,23,16,20,12.30
2015,02,23,16,21,12.30
2015,02,23,16,22,12.20
2015,02,23,16,23,12.20
2015,02,23,16,24,12.20
2015,02,23,16,25,12.20
2015,02,23,16,26,12.10
2015,02,23,16,27,12.10
2015,02,23,16,28,12.10
2015,02,23,16,29,12.10
2015,02,23,16,30,12.10
2015,02,23,16,31,12.10
2015,02,23,16,32,12.10
2015,02,23,16,33,12.10
2015,02,23,16,34,12.10
2015,02,23,16,35,12.10
2015,02,23,16,36,12.10
2015,02,23,16,37,12.10
2015,02,23,16,38,12.00
2015,02,23,16,39,12.00
2015,02,23,16,40,11.90
2015,02,23,16,41,11.90
2015,02,23,16,42,11.80
2015,02,23,16,43,11.80
2015,02,23,16,44,11.70
2015,02,23,16,45,11.60
2015,02,23,16,46,11.40
2015,02,23,16,47,11.30
2015,02,23,16,48,11.20
2015,02,23,16,49,11.10
2015,02,23,16,50,11.10
2015,02,23,16,51,11.00
2015,02,23,16,52,11.00
2015,02,23,16,53,10.90
2015,02,23,16,54,10.90
2015,02,23,16,55,10.80
2015,02,23,16,56,10.80
2015,02,23,16,57,10.80
2015,02,23,16,58,10.80
2015,02,23,16,59,10.70
2015,02,23,17,00,10.70
2015,02,23,17,01,10.70
2015,02,23,17,02,10.70
2015,02,23,17,03,10.70
2015,02,23,17,04,10.70
2015,02,23,17,05,10.70
2015,02,23,17,06,10.70
2015,02,23,17,07,10.70
2015,02,23,17,08,10.70
2015,02,23,17,09,10.70
2015,02,23,17,10,10.60
2015,02,23,17,11,10.60
2015,02,23,17,12,10.60
2015,02,23,17,13,10.60
2015,02,23,17,14,10.60
2015,02,23,17,15,10.60
2015,02,23,17,16,10.60
2015,02,23,17,17,10.60
2015,02,23,17,18,10.70
2015,02,23,17,19,10.70
2015,02,23,17,20,10.70
2015,02,23,17,21,10.70
2015,02,23,17,22,10.70
2015,02,23,17,23,10.70
2015,02,23,17,24,10.70
2015,02,23,17,25,10.60
2015,02,23,17,26,10.60
2015,02,23,17,27,10.60
2015,02,23,17,28,10.50
2015,02,23,17,29,10.50
2015,02,23,17,30,10.50
2015,02,23,17,31,10.40
2015,02,23,17,32,10.40
2015,02,23,17,33,10.40
2015,02,23,17,34,10.30
2015,02,23,17,35,10.30
2015,02,23,17,36,10.30
2015,02,23,17,37,10.30
2015,02,23,17,38,10.20
2015,02,23,17,39,10.20
2015,02,23,17,40,10.20
2015,02,23,17,41,10.10
2015,02,23,17,42,10.10
2015,02,23,17,43,10.00
2015,02,23,17,44,10.00
2015,02,23,17,45,9.90
2015,02,23,17,46,9.90
2015,02,23,17,47,9.80